Date String (YYYY-MM-DD hh:mm:ss) UTC,Instrument flags,Ambient pressure (hPa),Sample flow (lpm),Bypass flow (lpm),Sample temperature (°C),Ambient temperature (°C),ASC tube jacket temperature (°C),LED temperature (°C),Box temperature (°C),Sample RH (%),Span deviation,Mass concentration (μg/m³),Mass concentration (μg/m³),Mass concentration (μg/m³)
DateTimeUTC,F1_M11,P_M11,Q1_M11,Q2_M11,T1_M11,T2_M11,T3_M11,T4_M11,T5_M11,U1_M11,ZSPAN_M11,X0_M11,X2_M11,X1_M11
2021-12-12 16:00:00,,0819.6,5.01,0.00,22.8,22.0,00.0,31.7,24.6,07.2,0000.0,0004.01,0001.22,0000.86
2021-12-12 16:01:00,,0819.6,4.99,0.00,22.8,22.0,00.0,31.7,24.6,07.2,0000.0,0003.09,0001.19,0000.84
2021-12-12 16:02:00,,0819.5,5.00,0.00,22.8,22.0,00.0,31.7,24.6,07.2,0000.0,0003.00,0001.17,0000.83
2021-12-12 16:03:00,,0819.5,5.01,0.00,22.8,22.0,00.0,31.7,24.6,07.2,0000.0,0003.09,0001.17,0000.82
2021-12-12 16:04:00,,0819.5,4.99,0.00,22.8,22.1,00.0,31.7,24.6,07.2,0000.0,0003.40,0001.15,0000.81
2021-12-12 16:05:00,,0819.6,5.00,0.00,22.8,22.1,00.0,31.7,24.6,07.2,0000.0,0003.41,0001.12,0000.79
2021-12-12 16:06:00,,0819.6,5.00,0.00,22.8,22.1,00.0,31.8,24.6,07.2,0000.0,0003.48,0001.10,0000.77
2021-12-12 16:07:00,,0819.7,5.00,0.00,22.8,22.1,00.0,31.8,24.6,07.2,0000.0,0003.54,0001.11,0000.77
2021-12-12 16:08:00,,0819.7,5.01,0.00,22.8,22.1,00.0,31.8,24.6,07.2,0000.0,0003.63,0001.14,0000.77
2021-12-12 16:09:00,,0819.7,5.01,0.00,22.9,22.1,00.0,31.8,24.6,07.2,0000.0,0003.83,0001.20,0000.76
2021-12-12 16:10:00,,0819.6,5.01,0.00,22.9,22.1,00.0,31.8,24.6,07.1,0000.0,0003.68,0001.19,0000.77
2021-12-12 16:11:00,,0819.5,5.00,0.00,22.9,22.1,00.0,31.8,24.7,07.1,0000.0,0003.57,0001.21,0000.78
2021-12-12 16:12:00,,0819.6,5.01,0.00,22.9,22.1,00.0,31.8,24.7,07.1,0000.0,0002.95,0001.23,0000.78
2021-12-12 16:13:00,,0819.7,5.00,0.00,22.9,22.1,00.0,31.8,24.7,07.2,0000.0,0002.76,0001.21,0000.79
2021-12-12 16:14:00,,0819.8,4.99,0.00,22.9,22.1,00.0,31.8,24.7,07.2,0000.0,0002.58,0001.17,0000.79
2021-12-12 16:15:00,,0819.8,5.00,0.00,22.9,22.2,00.0,31.8,24.7,07.7,0000.0,0002.25,0001.16,0000.79
2021-12-12 16:16:00,,0819.8,4.98,0.00,22.9,22.2,00.0,31.8,24.7,07.8,0000.0,0002.24,0001.19,0000.80
2021-12-12 16:17:00,,0819.8,5.01,0.00,22.9,22.2,00.0,31.8,24.7,07.2,0000.0,0002.14,0001.20,0000.80
2021-12-12 16:18:00,,0819.8,4.99,0.00,22.9,22.2,00.0,31.8,24.7,07.2,0000.0,0002.13,0001.20,0000.80
2021-12-12 16:19:00,,0819.9,5.00,0.00,22.9,22.2,00.0,31.8,24.7,07.9,0000.0,0002.53,0001.34,0000.84
2021-12-12 16:20:00,,0819.8,5.02,0.00,22.9,22.2,00.0,31.8,24.7,08.0,0000.0,0003.45,0001.54,0000.95
2021-12-12 16:21:00,,0819.9,4.99,0.00,22.9,22.2,00.0,31.9,24.7,07.7,0000.0,0003.89,0001.68,0001.01
2021-12-12 16:22:00,,0819.9,5.00,0.00,22.9,22.2,00.0,31.9,24.7,07.8,0000.0,0004.12,0001.79,0001.06
2021-12-12 16:23:00,,0819.8,5.01,0.00,22.9,22.2,00.0,31.9,24.8,07.2,0000.0,0004.19,0001.85,0001.09
2021-12-12 16:24:00,,0819.9,4.99,0.00,22.9,22.2,00.0,31.9,24.8,07.0,0000.0,0004.39,0001.88,0001.09
2021-12-12 16:25:00,,0820.0,4.99,0.00,23.0,22.2,00.0,31.9,24.8,06.9,0000.0,0004.52,0001.87,0001.08
2021-12-12 16:26:00,,0819.9,5.01,0.00,23.0,22.2,00.0,31.9,24.8,06.9,0000.0,0004.68,0001.88,0001.07
2021-12-12 16:27:00,,0819.8,5.01,0.00,23.0,22.2,00.0,31.9,24.8,06.9,0000.0,0004.83,0001.86,0001.06
2021-12-12 16:28:00,,0819.7,5.00,0.00,23.0,22.2,00.0,31.9,24.8,06.9,0000.0,0005.69,0001.86,0001.05
2021-12-12 16:29:00,,0819.7,4.99,0.00,23.0,22.2,00.0,31.9,24.8,06.8,0000.0,0005.99,0001.84,0001.03
2021-12-12 16:30:00,,0819.6,5.00,0.00,23.0,22.2,00.0,31.9,24.8,06.8,0000.0,0005.54,0001.69,0000.99
2021-12-12 16:31:00,,0819.5,5.00,0.00,23.0,22.2,00.0,31.9,24.8,06.8,0000.0,0004.41,0001.42,0000.87
2021-12-12 16:32:00,,0819.5,5.00,0.00,23.0,22.2,00.0,31.9,24.8,06.9,0000.0,0003.93,0001.24,0000.80
2021-12-12 16:33:00,,0819.5,4.98,0.00,23.0,22.2,00.0,31.9,24.8,06.8,0000.0,0003.77,0001.11,0000.73
2021-12-12 16:34:00,,0819.6,5.02,0.00,23.0,22.2,00.0,31.9,24.7,06.9,0000.0,0003.63,0001.06,0000.70
2021-12-12 16:35:00,,0819.7,5.00,0.00,23.0,22.2,00.0,31.9,24.7,07.3,0000.0,0003.48,0001.04,0000.70
2021-12-12 16:36:00,,0819.7,4.99,0.00,22.9,22.2,00.0,31.9,24.7,07.9,0000.0,0003.57,0001.11,0000.75
2021-12-12 16:37:00,,0819.8,5.00,0.00,22.9,22.1,00.0,31.9,24.7,07.8,0000.0,0005.65,0001.21,0000.81
2021-12-12 16:38:00,,0819.9,5.00,0.00,22.9,22.1,00.0,31.9,24.7,07.5,0000.0,0005.95,0001.29,0000.83
2021-12-12 16:39:00,,0819.9,5.00,0.00,22.9,22.1,00.0,31.9,24.6,07.4,0000.0,0005.15,0001.31,0000.85
2021-12-12 16:40:00,,0819.9,4.99,0.00,22.9,22.1,00.0,31.9,24.6,07.2,0000.0,0004.90,0001.35,0000.87
2021-12-12 16:41:00,,0819.9,5.00,0.00,22.9,22.2,00.0,31.9,24.7,07.0,0000.0,0004.99,0001.37,0000.88
2021-12-12 16:42:00,,0819.6,5.01,0.00,22.9,22.2,00.0,31.9,24.7,07.0,0000.0,0005.05,0001.39,0000.88
2021-12-12 16:43:00,,0819.6,4.99,0.00,22.9,22.2,00.0,31.9,24.7,06.6,0000.0,0005.03,0001.40,0000.86
2021-12-12 16:44:00,,0819.6,5.01,0.00,22.9,22.2,00.0,31.9,24.7,06.5,0000.0,0004.92,0001.39,0000.83
2021-12-12 16:45:00,,0819.6,5.01,0.00,22.9,22.1,00.0,31.9,24.6,06.4,0000.0,0004.83,0001.35,0000.80
2021-12-12 16:46:00,,0819.6,5.00,0.00,22.9,22.1,00.0,31.9,24.6,06.7,0000.0,0004.78,0001.32,0000.78
2021-12-12 16:47:00,,0819.6,4.99,0.00,22.9,22.1,00.0,31.9,24.6,07.0,0000.0,0004.49,0001.22,0000.72
2021-12-12 16:48:00,,0819.7,5.00,0.00,22.8,22.1,00.0,31.9,24.6,06.9,0000.0,0002.42,0001.12,0000.65
2021-12-12 16:49:00,,0819.9,5.01,0.00,22.8,22.1,00.0,31.8,24.6,06.9,0000.0,0002.08,0001.05,0000.62
2021-12-12 16:50:00,,0819.9,5.00,0.00,22.8,22.1,00.0,31.8,24.5,07.5,0000.0,0003.27,0001.10,0000.62
2021-12-12 16:51:00,,0819.9,4.98,0.00,22.8,22.0,00.0,31.8,24.4,06.7,0000.0,0003.28,0001.07,0000.60
2021-12-12 16:52:00,,0819.9,5.01,0.00,22.8,22.0,00.0,31.8,24.4,06.9,0000.0,0003.29,0001.06,0000.57
2021-12-12 16:53:00,,0819.9,5.00,0.00,22.8,22.0,00.0,31.8,24.5,07.8,0000.0,0003.66,0001.20,0000.63
2021-12-12 16:54:00,,0819.9,5.00,0.00,22.8,22.1,00.0,31.8,24.5,07.2,0000.0,0004.50,0001.37,0000.71
2021-12-12 16:55:00,,0819.9,4.99,0.00,22.8,22.1,00.0,31.8,24.5,06.3,0000.0,0004.48,0001.35,0000.72
2021-12-12 16:56:00,,0819.8,5.01,0.00,22.8,22.1,00.0,31.8,24.5,06.2,0000.0,0004.63,0001.32,0000.71
2021-12-12 16:57:00,,0819.9,5.00,0.00,22.8,22.1,00.0,31.8,24.5,06.1,0000.0,0005.44,0001.31,0000.70
2021-12-12 16:58:00,,0819.8,5.00,0.00,22.8,22.1,00.0,31.8,24.5,06.2,0000.0,0005.76,0001.28,0000.67
2021-12-12 16:59:00,,0819.8,4.99,0.00,22.8,22.1,00.0,31.8,24.5,06.3,0000.0,0005.48,0001.19,0000.64
